Overview Statistics Trail Chart Weather Telemetry Raw packets
 

This is the latest recevied weather packets stored in our database for station/object K4KMJ. If no packets are shown the sender has not sent any weather packets the latest 10 day(s).

<< 55 56 57 58 59 60 61 >>
Time Temp. Humidity Pressure Rain* Wind** Luminosity Snow
1788292240 30° C 85% 1017.9 hPa 0 mm - 745 W/m² -
1788291935 29.44° C 87% 1017.9 hPa 0 mm - 483 W/m² -
1788291631 29.44° C 88% 1017.9 hPa 0 mm - 481 W/m² -
1788291330 29.44° C 88% 1018 hPa 0 mm - 341 W/m² -
1788291025 29.44° C 88% 1018 hPa 0 mm - 468 W/m² -
1788290720 29.44° C 88% 1018 hPa 0 mm - 438 W/m² -
1788290416 30° C 88% 1018 hPa 0 mm - 590 W/m² -
1788290112 29.44° C 88% 1018.1 hPa 0 mm - 802 W/m² -
1788289808 30° C 88% 1017.9 hPa 0 mm - 348 W/m² -
1788289506 29.44° C 88% 1018.1 hPa 0 mm - 704 W/m² -
1788289195 30.56° C 90% 1017.9 hPa 0 mm - 822 W/m² -
1788288890 29.44° C 91% 1018 hPa 0 mm - 817 W/m² -
1788288589 28.89° C 93% 1018 hPa 0 mm - 866 W/m² -
1788288285 28.89° C 93% 1018 hPa 0 mm - 983 W/m² -
1788287979 28.89° C 94% 1018.3 hPa 0 mm - 451 W/m² -
1788287678 28.89° C 95% 1018.4 hPa 0 mm - 363 W/m² -
1788287369 28.33° C 95% 1018.5 hPa 0 mm - 375 W/m² -
1788287065 28.33° C 96% 1018.5 hPa 0 mm - 429 W/m² -
1788286760 28.33° C 96% 1018.8 hPa 0 mm - 423 W/m² -
1788286454 27.78° C 97% 1018.4 hPa 0 mm - 468 W/m² -
1788286153 27.78° C 97% 1018.6 hPa 0 mm - 458 W/m² -
1788285847 27.78° C 97% 1018.5 hPa 0 mm - 434 W/m² -
1788285545 27.22° C 97% 1018.7 hPa 0.51 mm - 388 W/m² -
1788285241 27.22° C 97% 1018.7 hPa 2.29 mm - 371 W/m² -
1788284936 26.67° C 97% 1018.8 hPa 3.56 mm - 343 W/m² -

* Rain latest hour (hover to see other rain measurements)
** Current wind speed in m/s (hover to see current wind gust speed)